• în România
  • Lista ţărilor
  • Pe 7 zile
  • Temperatura apei
  • Hartă satelitară
  • Meteo pe hartă
  • Widget-uri
  • user-avatar
    Intrare

    Meteo pe oră la Saurimo

    Astăzi, 23 Mai, Marţi

    Timp Temperatura Precipitaţii Vânt Presiune Umiditate
    00:00 +21°C° 0 mm 2 m/s 671 mmHg 65%
    01:00 +20°C° 0 mm 2 m/s 670 mmHg 69%
    02:00 +19°C° 0 mm 2 m/s 670 mmHg 70%
    03:00 +19°C° 0 mm 2 m/s 670 mmHg 72%
    04:00 +19°C° 0 mm 2 m/s 670 mmHg 73%
    05:00 +19°C° 0 mm 2 m/s 671 mmHg 72%
    06:00 +20°C° 0 mm 3 m/s 671 mmHg 71%
    07:00 +20°C° 0 mm 3 m/s 672 mmHg 70%
    08:00 +24°C° 0 mm 3 m/s 672 mmHg 63%
    09:00 +26°C° 0 mm 3 m/s 673 mmHg 55%
    10:00 +28°C° 0 mm 3 m/s 673 mmHg 48%
    11:00 +29°C° 0 mm 3 m/s 673 mmHg 44%
    12:00 +30°C° 0 mm 3 m/s 673 mmHg 40%
    13:00 +31°C° 0 mm 3 m/s 672 mmHg 36%
    14:00 +31°C° 0 mm 2 m/s 672 mmHg 37%
    15:00 +31°C° 0 mm 2 m/s 671 mmHg 39%
    16:00 +30°C° 0 mm 2 m/s 671 mmHg 40%
    17:00 +28°C° 0 mm 1 m/s 671 mmHg 46%
    18:00 +25°C° 0 mm 1 m/s 671 mmHg 52%
    19:00 +23°C° 0 mm 1 m/s 670 mmHg 59%
    20:00 +22°C° 0 mm 1 m/s 671 mmHg 60%
    21:00 +22°C° 0 mm 1 m/s 671 mmHg 61%
    22:00 +21°C° 0 mm 1 m/s 671 mmHg 62%
    23:00 +21°C° 0 mm 1 m/s 671 mmHg 63%

    Mâine, 24 Mai, Miercuri

    Timp Temperatura Precipitaţii Vânt Presiune Umiditate
    00:00 +21°C° 0 mm 1 m/s 671 mmHg 64%
    01:00 +19°C° 0 mm 2 m/s 671 mmHg 65%
    02:00 +19°C° 0 mm 2 m/s 671 mmHg 67%
    03:00 +19°C° 0 mm 2 m/s 670 mmHg 69%
    04:00 +18°C° 0 mm 2 m/s 670 mmHg 70%
    05:00 +19°C° 0 mm 2 m/s 671 mmHg 69%
    06:00 +19°C° 0 mm 2 m/s 671 mmHg 68%
    07:00 +19°C° 0 mm 3 m/s 672 mmHg 67%
    08:00 +22°C° 0 mm 3 m/s 672 mmHg 60%
    09:00 +26°C° 0 mm 3 m/s 673 mmHg 53%
    10:00 +28°C° 0 mm 3 m/s 674 mmHg 45%
    11:00 +29°C° 0 mm 3 m/s 673 mmHg 42%
    12:00 +31°C° 0 mm 3 m/s 673 mmHg 39%
    13:00 +32°C° 0 mm 2 m/s 672 mmHg 35%
    14:00 +31°C° 0 mm 2 m/s 672 mmHg 37%
    15:00 +31°C° 0 mm 2 m/s 671 mmHg 38%
    16:00 +31°C° 0 mm 1 m/s 671 mmHg 40%
    17:00 +28°C° 0 mm 1 m/s 670 mmHg 47%
    18:00 +25°C° 0 mm 1 m/s 670 mmHg 54%
    19:00 +23°C° 0 mm 1 m/s 670 mmHg 61%
    20:00 +22°C° 0 mm 1 m/s 670 mmHg 62%
    21:00 +22°C° 0 mm 1 m/s 671 mmHg 63%
    22:00 +21°C° 0 mm 1 m/s 671 mmHg 64%
    23:00 +21°C° 0 mm 1 m/s 671 mmHg 64%

    Poimâine, 25 Mai, Joi

    Timp Temperatura Precipitaţii Vânt Presiune Umiditate
    00:00 +21°C° 0 mm 1 m/s 670 mmHg 65%
    01:00 +21°C° 0 mm 1 m/s 670 mmHg 65%
    02:00 +19°C° 0 mm 2 m/s 670 mmHg 66%
    03:00 +19°C° 0 mm 2 m/s 670 mmHg 67%
    04:00 +19°C° 0 mm 2 m/s 670 mmHg 67%
    05:00 +19°C° 0 mm 2 m/s 670 mmHg 67%
    06:00 +19°C° 0 mm 2 m/s 671 mmHg 66%
    07:00 +20°C° 0 mm 2 m/s 672 mmHg 65%
    08:00 +23°C° 0 mm 2 m/s 672 mmHg 58%
    09:00 +26°C° 0 mm 2 m/s 673 mmHg 51%
    10:00 +29°C° 0 mm 3 m/s 673 mmHg 44%
    11:00 +30°C° 0 mm 2 m/s 673 mmHg 41%
    12:00 +31°C° 0 mm 2 m/s 672 mmHg 38%
    13:00 +34°C° 0 mm 2 m/s 672 mmHg 35%
    14:00 +32°C° 0 mm 2 m/s 671 mmHg 37%
    15:00 +32°C° 0 mm 1 m/s 671 mmHg 39%
    16:00 +31°C° 0 mm 1 m/s 670 mmHg 40%
    17:00 +29°C° 0 mm 1 m/s 670 mmHg 47%
    18:00 +26°C° 0 mm 1 m/s 670 mmHg 54%
    19:00 +24°C° 0 mm 1 m/s 670 mmHg 60%
    20:00 +23°C° 0 mm 1 m/s 670 mmHg 61%
    21:00 +23°C° 0 mm 1 m/s 670 mmHg 63%
    22:00 +23°C° 0 mm 1 m/s 671 mmHg 64%
    23:00 +22°C° 0 mm 1 m/s 670 mmHg 64%

    26 Mai, Vineri

    Timp Temperatura Precipitaţii Vânt Presiune Umiditate
    00:00 +22°C° 0 mm 1 m/s 670 mmHg 65%
    01:00 +22°C° 0 mm 1 m/s 670 mmHg 65%
    02:00 +22°C° 0 mm 1 m/s 670 mmHg 65%
    03:00 +22°C° 0 mm 1 m/s 669 mmHg 65%
    04:00 +22°C° 0 mm 1 m/s 669 mmHg 64%
    05:00 +22°C° 0 mm 1 m/s 670 mmHg 63%
    06:00 +23°C° 0 mm 1 m/s 671 mmHg 62%
    07:00 +23°C° 0 mm 1 m/s 672 mmHg 61%
    08:00 +26°C° 0 mm 1 m/s 672 mmHg 54%
    09:00 +28°C° 0 mm 2 m/s 673 mmHg 47%
    10:00 +30°C° 0 mm 2 m/s 674 mmHg 39%
    11:00 +31°C° 0 mm 2 m/s 673 mmHg 37%
    12:00 +31°C° 0 mm 2 m/s 672 mmHg 35%
    13:00 +32°C° 0 mm 1 m/s 671 mmHg 33%
    14:00 +32°C° 0 mm 1 m/s 671 mmHg 35%
    15:00 +31°C° 0 mm 1 m/s 671 mmHg 37%
    16:00 +31°C° 0 mm 1 m/s 671 mmHg 38%
    17:00 +28°C° 0 mm 1 m/s 670 mmHg 45%
    18:00 +25°C° 0 mm 1 m/s 670 mmHg 51%
    19:00 +23°C° 0 mm 1 m/s 670 mmHg 57%
    20:00 +22°C° 0 mm 1 m/s 670 mmHg 59%
    21:00 +22°C° 0 mm 1 m/s 670 mmHg 60%
    22:00 +22°C° 0 mm 1 m/s 671 mmHg 61%
    23:00 +22°C° 0 mm 1 m/s 670 mmHg 61%

    27 Mai, Sâmbătă

    Timp Temperatura Precipitaţii Vânt Presiune Umiditate
    00:00 +22°C° 0 mm 1 m/s 670 mmHg 60%
    01:00 +22°C° 0 mm 1 m/s 670 mmHg 60%
    02:00 +21°C° 0 mm 1 m/s 670 mmHg 62%
    03:00 +21°C° 0 mm 1 m/s 670 mmHg 63%
    04:00 +20°C° 0 mm 1 m/s 669 mmHg 65%
    05:00 +21°C° 0 mm 1 m/s 670 mmHg 64%
    06:00 +22°C° 0 mm 1 m/s 671 mmHg 63%
    07:00 +22°C° 0 mm 1 m/s 672 mmHg 61%
    08:00 +25°C° 0 mm 2 m/s 672 mmHg 53%
    09:00 +28°C° 0 mm 2 m/s 673 mmHg 45%
    10:00 +30°C° 0 mm 2 m/s 674 mmHg 37%
    11:00 +31°C° 0 mm 2 m/s 673 mmHg 35%
    12:00 +32°C° 0 mm 2 m/s 673 mmHg 33%
    13:00 +34°C° 0 mm 2 m/s 672 mmHg 30%
    14:00 +32°C° 0 mm 2 m/s 672 mmHg 33%
    15:00 +32°C° 0 mm 2 m/s 671 mmHg 35%
    16:00 +31°C° 0 mm 1 m/s 671 mmHg 37%
    17:00 +29°C° 0 mm 1 m/s 671 mmHg 41%
    18:00 +27°C° 0 mm 2 m/s 671 mmHg 44%
    19:00 +25°C° 0 mm 2 m/s 671 mmHg 48%
    20:00 +24°C° 0 mm 2 m/s 671 mmHg 50%
    21:00 +24°C° 0 mm 2 m/s 671 mmHg 51%
    22:00 +23°C° 0 mm 2 m/s 671 mmHg 53%
    23:00 +23°C° 0 mm 2 m/s 671 mmHg 54%

    28 Mai, Duminică

    Timp Temperatura Precipitaţii Vânt Presiune Umiditate
    00:00 +22°C° 0 mm 1 m/s 671 mmHg 56%
    01:00 +21°C° 0 mm 1 m/s 670 mmHg 57%
    02:00 +21°C° 0 mm 1 m/s 670 mmHg 57%
    03:00 +20°C° 0 mm 2 m/s 670 mmHg 58%
    04:00 +20°C° 0 mm 2 m/s 670 mmHg 58%
    05:00 +20°C° 0 mm 2 m/s 671 mmHg 59%
    06:00 +20°C° 0 mm 2 m/s 672 mmHg 59%
    07:00 +20°C° 0 mm 2 m/s 672 mmHg 60%
    08:00 +24°C° 0 mm 2 m/s 673 mmHg 52%
    09:00 +27°C° 0 mm 3 m/s 673 mmHg 44%
    10:00 +30°C° 0 mm 3 m/s 674 mmHg 36%
    11:00 +31°C° 0 mm 3 m/s 673 mmHg 33%
    12:00 +33°C° 0 mm 3 m/s 673 mmHg 30%
    13:00 +34°C° 0 mm 3 m/s 672 mmHg 27%
    14:00 +34°C° 0 mm 2 m/s 672 mmHg 29%
    15:00 +32°C° 0 mm 2 m/s 672 mmHg 31%
    16:00 +32°C° 0 mm 1 m/s 671 mmHg 33%
    17:00 +29°C° 0 mm 1 m/s 671 mmHg 39%
    18:00 +26°C° 0 mm 1 m/s 671 mmHg 45%
    19:00 +23°C° 0 mm 1 m/s 671 mmHg 51%
    20:00 +23°C° 0 mm 1 m/s 671 mmHg 51%
    21:00 +22°C° 0 mm 1 m/s 671 mmHg 52%
    22:00 +22°C° 0 mm 1 m/s 672 mmHg 53%
    23:00 +22°C° 0 mm 1 m/s 671 mmHg 53%
    Arată mai mult